Location: Poviglio
(44.3833°N, 10.2333°E)
Time: 16:12:44
(UTC+00:00)

Daily predictions for brighter satellites

Satellite Brightness Start Highest point End
(mag) Time Altitude Azimuth Time Altitude Azimuth Time Altitude Azimuth
COSMO-SKYMED 1 2.7 17:34:17 10° NNE 17:38:39 85° WNW 17:42:59 10° SSW
Cosmos 1707 3.2 17:35:48 10° N 17:39:22 37° ENE 17:42:54 10° SE
NOSS 3-1 (C) 4.3 17:32:13 10° NNW 17:39:30 59° NE 17:48:07 10° SE
Cosmos 1980 Rocket 3.8 17:37:46 10° ESE 17:39:49 12° E 17:41:52 10° ENE
Cosmos 1674 3.7 17:37:11 10° NNE 17:40:23 25° ENE 17:43:32 10° SE
BREEZE-M DEB (TANK) 4.1 17:37:56 10° SSW 17:41:50 45° SE 17:54:42 10° ENE
Cosmos 2242 Rocket 3.6 17:42:24 10° N 17:46:48 61° E 17:51:08 10° SSE
Okean 2 4.5 17:44:44 10° NNE 17:48:13 25° ENE 17:51:41 10° SE
ISS -2.0 17:45:25 10° WNW 17:48:19 26° N 17:51:12 10° NE
Okean O Rocket 1.9 17:45:49 10° SE 17:49:56 45° ENE 17:54:06 10° N
Cosmos 1656 3.7 17:45:29 10° SSW 17:50:59 68° ESE 17:56:37 10° NNE
ARGOS Delta rocket 4.1 17:47:26 10° NNE 17:52:49 60° E 17:57:58 10° S
Okean 1-7 3.6 17:53:09 10° NNW 17:57:20 60° W 18:01:30 10° S
CZ-4 R/B 1.8 17:53:57 10° SE 17:57:53 46° ENE 18:01:53 10° N
Cosmos 1140 Rocket 3.9 17:54:52 10° SSW 17:59:58 69° WNW 18:05:06 10° NNE
Feng Yun 1-1 Rocket 4.4 17:57:02 10° SE 18:02:28 53° ENE 18:07:46 10° N
Cosmos 2219 3.7 17:58:07 10° NNW 18:03:37 44° ENE 18:09:05 10° SE
DMSP B5D1-3 4.5 18:05:11 10° NNE 18:10:16 64° ESE 18:15:19 10° S
Cosmos 1190 Rocket 4.0 18:05:03 10° SSW 18:10:17 86° ESE 18:15:31 10° NNE
Cosmos 1726 3.8 18:12:15 15° ENE 18:12:15 15° ENE 18:13:49 10° NE
Cosmos 1954 Rocket 4.0 18:08:00 10° S 18:13:04 61° ESE 18:18:10 10° NNE
In-Cosmos 22 4.1 18:10:06 10° NNW 18:15:27 85° W 18:20:44 10° S
Cosmos 1634 Rocket 3.9 18:10:06 10° N 18:16:19 85° E 18:22:29 10° S
Cosmos 1805 3.9 18:13:49 10° SSE 18:17:13 31° E 18:20:41 10° NNE
USA 229 DEB 4.4 18:10:36 10° NNW 18:17:35 45° NE 18:23:22 17° ESE
USA 229 4.4 18:10:42 10° NNW 18:17:41 45° NE 18:23:26 17° ESE
Cosmos 1975 2.9 18:13:52 10° S 18:17:55 84° W 18:22:00 10° N
Cosmos 2279 Rocket 4.1 18:12:29 10° N 18:18:40 58° ENE 18:24:48 10° SSE
HJ-1C 3.5 18:16:06 10° S 18:19:12 69° WSW 18:22:21 10° NNW
Resurs 01 Rocket 3.5 18:22:46 14° ENE 18:23:03 14° ENE 18:25:16 10° NNE
COBE Rocket 4.2 18:18:15 10° S 18:23:14 70° W 18:28:07 10° NNW
IGS 5A 4.2 18:22:28 19° ESE 18:24:47 33° ENE 18:28:31 10° N
Cosmos 2221 Rocket 4.1 18:21:09 10° N 18:25:23 39° ENE 18:28:31 17° SE
Cosmos 2082 4.4 18:21:28 10° NNW 18:26:46 37° NE 18:29:58 21° ESE
YAOGAN 1 3.3 18:26:12 10° S 18:30:26 56° W 18:34:43 10° NNW
Cosmos 2263 Rocket 3.4 18:25:52 10° N 18:30:30 25° NE 18:32:40 20° E
Cosmos 540 Rocket 3.8 18:27:19 10° N 18:32:14 45° ENE 18:35:09 22° SE
Cosmos 1763 Rocket 3.3 18:28:29 10° NNW 18:33:34 74° ENE 18:38:07 13° SSE
Aureole 1 4.3 18:31:25 10° S 18:34:19 44° ESE 18:37:16 10° NNE
Cosmos 1674 Rocket 4.1 18:32:12 10° N 18:36:16 37° ENE 18:37:48 28° ESE
SJ-6B 2.8 18:37:04 28° SE 18:38:40 49° ENE 18:42:16 10° N
Okean-O 2.8 18:40:53 25° SE 18:43:13 52° ENE 18:47:31 10° N
GENESIS II 4.5 18:39:35 10° NNW 18:43:36 54° NE 18:44:53 37° ESE
IRIDIUM 106 4.4 18:39:11 10° SSE 18:44:15 55° E 18:49:21 10° NNE
OBJECT-B 0.1 18:44:26 70° SSE 18:44:42 84° ENE 18:47:24 10° N
NOSS 3-1 (A) 4.1 18:37:39 10° NW 18:45:10 79° NE 18:51:45 20° SE
Cosmos 1697 Rocket 2.6 18:39:50 10° SSW 18:45:27 85° ESE 18:51:06 10° NNE
Cosmos 1242 Rocket 2.3 18:43:01 10° S 18:46:34 78° ESE 18:50:10 10° NNE
Cosmos 1626 3.1 18:43:35 10° NNW 18:47:05 47° W 18:50:33 10° SSW
CSL-04 Debris 4.1 18:44:30 12° SSE 18:49:36 76° ENE 18:55:01 10° N
CZ-2C R/B 2.8 18:47:24 10° SW 18:49:25 17° S 18:49:25 17° S
CZ-3 Stage 3 4.4 18:47:52 10° SW 18:53:49 39° SSE 19:03:48 24° ESE
Lacrosse 5 3.4 18:55:35 10° WNW 19:00:02 31° SW 19:03:53 13° S
Meteor 2-10 4.1 18:54:36 10° S 19:00:19 77° E 19:05:57 10° NNE
Resurs 1-3 3.6 18:59:48 44° SE 19:00:57 61° ENE 19:05:18 10° N
deb Chang Zheng 4 3.7 19:03:09 46° ENE 19:03:09 46° ENE 19:07:01 10° N
NOSS 2-2 (D) 4.3 18:59:05 10° NW 19:04:11 89° SW 19:07:46 30° SE
Cosmos 2227 Rocket 2.8 18:58:49 10° NNW 19:04:20 56° WSW 19:09:19 13° S
CZ-4C R/B 4.5 18:58:27 10° NW 19:05:12 35° WSW 19:12:43 10° S
Meteor 1-15 Rocket 4.4 19:07:49 42° ESE 19:08:36 45° E 19:13:53 10° NNE
Cosmos 1378 Rocket 3.4 19:05:04 10° N 19:09:31 82° E 19:10:41 48° SSE
SL-4 R/B 3.6 19:06:32 10° WNW 19:10:39 33° N 19:12:27 25° NE
Meteor 2-5 Rocket 4.2 19:06:49 10° N 19:11:59 37° ENE 19:11:59 37° ENE
Cosmos 1733 Rocket 3.9 19:11:51 10° SSW 19:16:08 50° WNW 19:20:28 10° N
Cosmos 2369 3.6 19:10:33 10° SSW 19:16:16 82° ESE 19:22:01 10° NNE
Landsat 5 4.4 19:14:26 10° N 19:18:48 53° WNW 19:23:09 10° SSW
Cosmos 2297 Rocket 4.1 19:14:39 10° NW 19:19:20 27° WSW 19:24:00 10° SSW
Meteor 2-14 Rocket 4.5 19:14:35 10° SSW 19:20:40 78° W 19:26:46 10° N
Cosmos 1980 Rocket 2.0 19:17:14 10° SSW 19:22:53 85° ESE 19:28:34 10° NNE
Cosmos 2026 Rocket 4.2 19:25:48 44° ENE 19:25:48 44° ENE 19:30:56 10° NNE
ISS -1.8 19:22:52 10° NW 19:25:11 24° N 19:25:11 24° N
CSL-04 Rocket 4.0 19:22:22 20° S 19:25:58 60° WSW 19:31:16 10° NNW
Okean O Rocket 4.3 19:23:34 10° SW 19:26:31 18° W 19:29:29 10° NW
USA 186 4.0 19:27:58 20° WNW 19:27:58 20° WNW 19:29:16 10° NW
SL-14 R/B 4.1 19:23:59 10° NNW 19:27:46 48° W 19:28:41 39° SW
Meteor 2-21 Rocket 4.3 19:23:34 10° S 19:29:39 87° E 19:35:44 10° N
Nadezhda 4 Rocket 4.0 19:24:02 10° S 19:30:22 82° W 19:36:45 10° N
CZ-4 R/B 4.3 19:30:26 10° SW 19:33:03 16° W 19:35:42 10° NW
H-2A R/B 2.9 19:34:03 55° N 19:34:03 55° N 19:37:13 10° NNW
Meteor 1-12 Rocket 4.2 19:29:02 12° S 19:34:39 87° E 19:40:43 10° N
Cosmos 1850 Rocket 4.3 19:37:56 10° SSW 19:43:04 64° WNW 19:48:18 10° NNE
Cosmos 1726 3.7 19:46:22 33° WNW 19:46:22 33° WNW 19:49:35 10° N
USA 81 4.4 19:41:35 10° N 19:45:49 54° NNE 19:45:49 54° NNE
Ariane Rocket 3.7 19:48:39 42° NNE 19:48:39 42° NNE 19:52:16 10° N
Meteor 2-16 Rocket 4.5 19:47:46 26° SSW 19:51:24 77° W 19:57:34 10° N
Cosmos 2292 Rocket 4.4 19:44:36 10° SSW 19:51:28 75° W 19:56:39 10° N
Resurs 01 Rocket 2.7 20:00:20 43° NNW 20:00:20 43° NNW 20:03:24 10° NNW
USA 281 3.7 19:59:20 45° NE 19:59:20 45° NE 20:05:13 10° NNW
Cosmos 1844 Rocket 4.2 19:55:04 10° N 19:58:31 24° NNE 19:58:31 24° NNE
Cosmos 1092 Rocket 3.9 19:59:44 66° SSW 20:00:44 85° W 20:07:05 10° N
Cosmos 841 Rocket 4.2 19:56:36 10° NNW 20:01:34 47° WSW 20:01:52 46° WSW
Terra 4.1 20:04:55 15° NNE 20:04:55 15° NNE 20:05:55 10° N
Gbstr 26 Del rocket 4.4 19:56:15 10° SW 20:03:34 66° SSE 20:03:34 66° SSE
USA 229 DEB 4.5 20:01:34 10° NW 20:08:46 53° WSW 20:10:50 43° SSW
USA 229 4.4 20:01:40 10° NW 20:08:52 53° WSW 20:10:54 43° SSW
Cosmos 2263 Rocket 2.6 20:09:14 10° NNW 20:14:22 58° W 20:14:22 58° W
SPOT 1/Viking Rocket 4.3 20:18:06 49° WNW 20:18:06 49° WNW 20:22:25 10° NNW
USA 215 4.2 20:39:29 37° NNE 20:39:47 37° NNE 20:45:40 10° NW
